Tracking 19145 objects as of 25-Apr-2018
HD Live streaming from Space Station
objects crossing your sky now

RADUGA 21

Track RADUGA 21 now!
RADUGA 21 is classified as:


NORAD ID: 18631
Int'l Code: 1987-100A
Perigee: 35,796.0 km
Apogee: 35,816.0 km
Inclination: 15.0 °
Period: 1,436.7 minutes
Semi major axis: 42176 km
RCS: 3.9811 m2 (large)
Launch date: December 10, 1987
Source: Commonwealth of Independent States (former USSR) (CIS)
Launch site: TYURATAM MISSILE AND SPACE COMPLEX (TTMTR)
aabbcc
Your satellite tracking list
Your tracking list is empty




NASA's NSSDC Master Catalog

Two Line Element Set (TLE):
1 18631U 87100A   18114.54711472 -.00000319 +00000-0 +00000-0 0  9995
2 18631 014.9770 351.3264 0002371 317.4028 041.1945 01.00228073111247
Source of the keplerian elements: AFSPC